This demonstration page uses our WeatherBlox Daily Observations layout. Learn more.

Hourly Observations for August 17, 2019

Temp ( °F °C ) Dew Point ( °F °C ) Humidity (%) Winds ( mph kmh ) Pressure ( in mb ) Visibility ( mi km ) Precip ( " mm )
12:15 am 00:15 Mostly Cloudy 72 22 70 21.3 96 96 NE 7 11 29.88 1012 10 16.09344 0 0
12:35 am 00:35 Cloudy with Heavy Thunderstorms 71 21.7 70 21.3 98 98 NNE 7 11 29.85 1011 5 8.04672 0.02 0.508
12:55 am 00:55 Partly Cloudy 70 21 70 21 100 100 N 7 11 29.83 1010 7 11.265408 0.03 0.762
1:15 am 01:15 Clear 69 20.8 69 20.8 100 100 NNE 6 9 29.77 1008 7 11.265408 0 0
1:35 am 01:35 Clear 69 20.7 69 20.7 100 100 ESE 9 15 29.71 1006 7 11.265408 0 0
1:55 am 01:55 Clear with Mist and Fog 69 20.7 69 20.7 100 100 SSE 8 13 29.71 1006 5 8.04672 0 0
2:15 am 02:15 Mostly Cloudy with Mist and Fog 69 20.7 69 20.7 100 100 SSE 8 13 29.71 1006 4 6.437376 0 0
2:35 am 02:35 Cloudy with Mist and Fog 69 20.6 69 20.6 100 100 Calm 29.68 1005 2.5 4.02336 0 0
2:55 am 02:55 Cloudy with Mist and Fog 69 20.5 69 20.5 100 100 N 6 9 29.71 1006 3 4.828032 0 0
3:15 am 03:15 Cloudy with Mist and Fog 69 20.7 69 20.7 100 100 SE 6 9 29.71 1006 4 6.437376 0 0
3:35 am 03:35 Mostly Clear with Mist and Fog 70 21 70 21 100 100 SSE 6 9 29.74 1007 4 6.437376 0 0
3:55 am 03:55 Cloudy with Mist and Fog 70 21 70 21 100 100 SE 9 15 29.77 1008 4 6.437376 0 0
4:15 am 04:15 Cloudy with Mist and Fog 70 21 70 21 100 100 SE 15 24 29.77 1008 4 6.437376 0 0
4:35 am 04:35 Cloudy with Mist and Fog 71 21.5 71 21.5 100 100 SSE 15 24 29.77 1008 1.5 2.414016 0 0
4:55 am 04:55 Cloudy with Mist and Fog 71 21.4 71 21.4 100 100 SE 10 17 29.71 1006 5 8.04672 0 0
5:15 am 05:15 Cloudy 70 21.3 70 21.3 100 100 SE 5 7 29.68 1005 7 11.265408 0 0
5:35 am 05:35 Mostly Cloudy 70 21 70 21 100 100 SE 6 9 29.74 1007 10 16.09344 0 0
5:55 am 05:55 Partly Cloudy 68 20.1 68 20 99 99 E 3 6 29.74 1007 10 16.09344 0 0
6:20 am 06:20 undefined 68 20 68 20 100 100 ENE 7 11 29.74 1007 N/A 0 0
6:35 am 06:35 Clear 68 20.1 68 20.1 100 100 E 5 7 29.74 1007 7 11.265408 0 0
6:55 am 06:55 Sunny 67 19.7 67 19.7 100 100 E 6 9 29.74 1007 10 16.09344 0 0
7:15 am 07:15 Sunny 67 19.5 67 19.5 100 100 E 3 6 29.74 1007 10 16.09344 0 0
7:35 am 07:35 Sunny 67 19.3 67 19.3 100 100 Calm 29.74 1007 10 16.09344 0 0
7:55 am 07:55 Sunny 67 19.6 67 19.6 100 100 Calm 29.74 1007 10 16.09344 0 0
8:15 am 08:15 Sunny 68 20.2 68 20 99 99 ESE 3 6 29.74 1007 10 16.09344 0 0
8:35 am 08:35 Sunny 69 20.8 68 20.1 96 96 SE 5 7 29.74 1007 10 16.09344 0 0
8:55 am 08:55 Sunny 71 21.6 69 20.4 93 93 SSE 3 6 29.71 1006 10 16.09344 0 0
9:15 am 09:15 Sunny 74 23.1 70 21.2 89 89 SSE 3 6 29.71 1006 10 16.09344 0 0
9:35 am 09:35 Sunny 76 24.2 70 21.2 83 83 S 6 9 29.71 1006 10 16.09344 0 0
9:55 am 09:55 Sunny 77 25.2 70 20.9 77 77 SSE 6 9 29.68 1005 10 16.09344 0 0
10:15 am 10:15 Sunny 78 25.3 70 21.3 79 79 SSE 6 9 29.68 1005 10 16.09344 0 0
10:35 am 10:35 Sunny 78 25.7 71 21.4 77 77 SSE 8 13 29.68 1005 10 16.09344 0 0
10:55 am 10:55 Sunny 79 26 69 20.8 73 73 SSE 8 13 29.68 1005 10 16.09344 0 0
11:15 am 11:15 Sunny 80 26.5 67 19.4 65 65 S 12 19 29.68 1005 10 16.09344 0 0
11:35 am 11:35 Sunny 81 27.1 67 19.3 62 62 S 14 22 29.68 1005 10 16.09344 0 0
11:55 am 11:55 Sunny 82 27.7 67 19.3 60 60 S 12 19 29.68 1005 10 16.09344 0 0
12:15 pm 12:15 Sunny 83 28.2 67 19.2 58 58 S 15 24 29.65 1004 10 16.09344 0 0
12:35 pm 12:35 Sunny 84 28.7 66 18.8 55 55 S 14 22 29.62 1003 10 16.09344 0 0
12:55 pm 12:55 Sunny 85 29.2 67 19.2 55 55 SSW 17 28 29.62 1003 10 16.09344 0 0
1:15 pm 13:15 Sunny 85 29.6 67 19.2 54 54 SSW 16 26 29.62 1003 10 16.09344 0 0
1:35 pm 13:35 Sunny 85 29.7 66 19.1 53 53 S 21 33 29.62 1003 10 16.09344 0 0
1:55 pm 13:55 Sunny 86 30.1 67 19.7 54 54 SSW 18 30 29.62 1003 10 16.09344 0 0
2:15 pm 14:15 Sunny 86 30.1 67 19.5 53 53 SSW 15 24 29.62 1003 10 16.09344 0 0
2:35 pm 14:35 Sunny 87 30.6 67 19.6 52 52 SSW 15 24 29.62 1003 10 16.09344 0 0
2:55 pm 14:55 Sunny 87 30.8 68 20.1 53 53 SSW 14 22 29.62 1003 10 16.09344 0 0
3:15 pm 15:15 Sunny 87 30.7 67 19.7 52 52 SSW 16 26 29.62 1003 10 16.09344 0 0
3:35 pm 15:35 Sunny 88 31 69 20.4 53 53 S 13 20 29.62 1003 10 16.09344 0 0
3:55 pm 15:55 Sunny 88 31.3 69 20.4 52 52 S 13 20 29.62 1003 10 16.09344 0 0
4:15 pm 16:15 Sunny 88 31.2 68 20.2 52 52 S 13 20 29.59 1002 10 16.09344 0 0
4:35 pm 16:35 Sunny 89 31.5 69 20.4 52 52 S 12 19 29.59 1002 10 16.09344 0 0
4:55 pm 16:55 Sunny 89 31.5 69 20.4 52 52 S 13 20 29.59 1002 10 16.09344 0 0
5:15 pm 17:15 Sunny 89 31.4 70 21.2 55 55 S 10 17 29.59 1002 10 16.09344 0 0
5:35 pm 17:35 Sunny 88 31.1 70 21.3 56 56 S 10 17 29.56 1001 10 16.09344 0 0
5:55 pm 17:55 Sunny 88 31 70 21 55 55 S 12 19 29.56 1001 10 16.09344 0 0
6:15 pm 18:15 Sunny 86 30.2 70 21.3 59 59 S 8 13 29.56 1001 10 16.09344 0 0
6:35 pm 18:35 Sunny 85 29.5 70 21.2 61 61 S 8 13 29.56 1001 10 16.09344 0 0
6:55 pm 18:55 Sunny 83 28.6 72 22 68 68 S 6 9 29.56 1001 10 16.09344 0 0
7:15 pm 19:15 Sunny 83 28.1 71 21.8 69 69 S 6 9 29.56 1001 10 16.09344 0 0
7:35 pm 19:35 Sunny 82 27.5 71 21.9 72 72 S 7 11 29.59 1002 10 16.09344 0 0
7:55 pm 19:55 Sunny 81 27.2 71 21.7 72 72 S 9 15 29.59 1002 10 16.09344 0 0
8:15 pm 20:15 Sunny 81 27.2 70 21.3 70 70 S 9 15 29.59 1002 10 16.09344 0 0
8:35 pm 20:35 Clear 80 26.9 70 21.3 71 71 S 8 13 29.59 1002 10 16.09344 0 0
8:55 pm 20:55 Clear 78 25.7 71 21.5 78 78 SSE 8 13 29.56 1001 10 16.09344 0 0
9:15 pm 21:15 Clear 77 25.1 71 21.6 81 81 SSE 7 11 29.56 1001 10 16.09344 0 0
9:35 pm 21:35 Clear 76 24.7 71 21.5 82 82 SSE 5 7 29.59 1002 10 16.09344 0 0
9:55 pm 21:55 Clear 75 23.7 71 21.5 88 88 SSE 7 11 29.62 1003 10 16.09344 0 0
10:15 pm 22:15 Clear 74 23.5 71 21.7 90 90 SE 6 9 29.62 1003 10 16.09344 0 0
10:35 pm 22:35 Clear 74 23.5 72 22 91 91 SE 6 9 29.65 1004 10 16.09344 0 0
10:55 pm 22:55 Clear 74 23.2 72 22 93 93 SE 8 13 29.62 1003 10 16.09344 0 0
11:15 pm 23:15 Clear 74 23.3 72 22.2 94 94 SSE 8 13 29.62 1003 10 16.09344 0 0
11:35 pm 23:35 Clear 73 22.9 72 22 95 95 SSE 6 9 29.62 1003 10 16.09344 0 0
11:55 pm 23:55 Clear 73 23 72 22.1 95 95 S 6 9 29.62 1003 10 16.09344 0 0

Powered by AerisWeather